FW7611 Weather Reports


Display with metric or nautical units.
time (UTC)temp
F
wind
direction
speed
MPH
gust
MPH
rain 1hr
in
rain 24hr
in
rain mn
in
humidity
%
barometer
mb
20260901014543 76 0 0.0 0.0 0.00 0.00 0.00 84 1021.1
20260901013046 77 0 0.0 0.0 0.00 0.00 0.00 85 1021.0
20260901011549 77 0 0.0 0.0 0.00 0.00 0.00 85 1020.9
20260901010043 78 0 0.0 0.0 0.00 0.00 0.00 84 1020.7
20260901004600 78 0 0.0 0.0 0.00 0.00 0.00 84 1020.6
20260901003048 78 0 0.0 0.0 0.00 0.00 0.00 84 1020.5
20260901001549 79 0 0.0 0.0 0.00 0.00 0.00 82 1020.4
20260901000104 80 0 0.0 0.0 0.00 0.00 0.00 81 1020.3
20260831234542 81 0 0.0 2.0 0.00 0.00 0.00 78 1020.1
20260831233049 82 0 0.0 2.0 0.00 0.00 0.00 75 1020.0
20260831231550 82 0 0.0 2.0 0.00 0.00 0.00 74 1020.2
20260831230045 84 0 0.0 2.0 0.00 0.00 0.00 71 1020.4
20260831224543 85 0 0.0 2.0 0.00 0.00 0.00 68 1020.3
20260831223057 85 0 0.0 2.0 0.00 0.00 0.00 67 1020.2
20260831221546 86 0 0.0 2.0 0.00 0.00 0.00 63 1020.3
20260831220041 87 0 0.0 2.0 0.00 0.00 0.00 63 1020.4
20260831214541 87 0 0.0 2.0 0.00 0.00 0.00 60 1020.6
20260831213050 87 0 0.0 2.0 0.00 0.00 0.00 62 1020.6
20260831211547 87 109 0.0 3.0 0.00 0.00 0.00 63 1020.5
20260831210041 87 0 0.0 5.0 0.00 0.00 0.00 63 1020.7
20260831204547 87 214 2.0 3.0 0.00 0.00 0.00 65 1020.8
20260831203046 86 0 0.0 0.0 0.00 0.00 0.00 63 1020.8
20260831201541 84 0 0.0 0.0 0.00 0.00 0.00 71 1020.8
20260831200040 84 0 0.0 0.0 0.00 0.00 0.00 66 1021.2
20260831194616 83 0 0.0 0.0 0.00 0.00 0.00 67 1021.5
20260831193047 84 0 0.0 2.0 0.00 0.00 0.00 68 1021.7
20260831191542 82 58 1.0 3.0 0.00 0.00 0.00 69 1021.8
20260831190054 83 55 1.0 4.0 0.00 0.00 0.00 67 1021.9
20260831184547 85 26 2.0 9.0 0.00 0.00 0.00 65 1021.9
20260831183046 88 37 0.0 2.0 0.00 0.00 0.00 57 1022.0
20260831181547 90 333 1.0 4.0 0.00 0.00 0.00 55 1021.9
20260831180049 91 333 1.0 4.0 0.00 0.00 0.00 53 1022.1
20260831174541 90 321 1.0 2.0 0.00 0.00 0.00 54 1022.4
20260831173050 91 289 0.0 2.0 0.00 0.00 0.00 57 1022.4
20260831171546 90 257 1.0 3.0 0.00 0.00 0.00 59 1022.5
20260831170040 89 51 1.0 2.0 0.00 0.00 0.00 60 1022.5
20260831164546 89 337 1.0 2.0 0.00 0.00 0.00 60 1022.5
20260831163049 88 59 1.0 2.0 0.00 0.00 0.00 64 1022.7
20260831161547 88 0 0.0 6.0 0.00 0.00 0.00 64 1022.8
20260831160043 87 227 0.0 2.0 0.00 0.00 0.00 66 1022.8
20260831154649 85 173 1.0 2.0 0.00 0.00 0.00 67 1022.7
20260831153049 84 165 2.0 4.0 0.00 0.00 0.00 71 1023.1
20260831151540 84 0 0.0 4.0 0.00 0.00 0.00 72 1023.0
20260831150042 83 211 0.0 2.0 0.00 0.00 0.00 73 1023.0
20260831144548 81 247 0.0 2.0 0.00 0.00 0.00 75 1023.1
20260831143105 80 217 1.0 2.0 0.00 0.00 0.00 76 1023.1
20260831141605 79 212 0.0 2.0 0.00 0.00 0.00 79 1023.0
20260831140052 78 0 1.0 2.0 0.00 0.00 0.00 81 1023.0
20260831134542 76 290 2.0 4.0 0.00 0.00 0.00 83 1023.0
20260831133047 76 263 0.0 2.0 0.00 0.00 0.00 85 1023.0
20260831131546 74 0 0.0 2.0 0.00 0.00 0.00 87 1023.0
20260831130043 73 239 0.0 2.0 0.00 0.00 0.00 90 1023.0
20260831124539 72 320 0.0 2.0 0.00 0.00 0.00 92 1023.0
20260831123047 71 319 0.0 2.0 0.00 0.00 0.00 94 1023.0
20260831121542 70 0 0.0 2.0 0.00 0.00 0.00 95 1023.0
20260831120044 69 0 0.0 2.0 0.00 0.00 0.00 95 1022.9
20260831114549 68 0 0.0 0.0 0.00 0.00 0.00 95 1022.9
20260831113048 68 0 0.0 0.0 0.00 0.00 0.00 95 1023.0
20260831111541 68 0 0.0 0.0 0.00 0.00 0.00 95 1022.8
20260831110056 68 0 0.0 0.0 0.00 0.00 0.00 95 1022.7
20260831104540 68 0 0.0 0.0 0.00 0.00 0.00 95 1022.7
20260831103048 68 0 0.0 0.0 0.00 0.00 0.00 95 1022.6
20260831101551 68 0 0.0 0.0 0.00 0.00 0.00 95 1022.5
20260831100056 68 0 0.0 0.0 0.00 0.00 0.00 95 1022.2
20260831094546 68 0 0.0 0.0 0.00 0.00 0.00 95 1022.3
20260831093049 68 0 0.0 0.0 0.00 0.00 0.00 95 1022.2
20260831091541 68 0 0.0 0.0 0.00 0.00 0.00 95 1022.3
20260831090101 68 0 0.0 0.0 0.00 0.00 0.00 94 1022.3
20260831084547 68 0 0.0 0.0 0.00 0.00 0.00 95 1022.2
20260831083041 68 0 0.0 0.0 0.00 0.00 0.00 95 1022.0
20260831081542 68 0 0.0 0.0 0.00 0.00 0.00 94 1022.0
20260831080044 68 0 0.0 0.0 0.00 0.00 0.00 94 1022.3
20260831074541 68 0 0.0 0.0 0.00 0.00 0.00 94 1022.2
20260831073101 68 0 0.0 0.0 0.00 0.00 0.00 94 1022.1
20260831071541 68 0 0.0 0.0 0.00 0.00 0.00 94 1022.2
20260831070042 68 0 0.0 0.0 0.00 0.00 0.00 94 1022.2
20260831064547 69 0 0.0 0.0 0.00 0.00 0.00 94 1022.4
20260831063040 69 0 0.0 0.0 0.00 0.00 0.00 94 1022.4
20260831061553 69 0 0.0 0.0 0.00 0.00 0.00 94 1022.5
20260831060041 69 0 0.0 0.0 0.00 0.00 0.00 94 1022.5
20260831054550 69 0 0.0 0.0 0.00 0.00 0.00 93 1022.6
20260831053053 69 0 0.0 0.0 0.00 0.00 0.00 93 1022.7
20260831051549 69 0 0.0 0.0 0.00 0.00 0.00 93 1022.7
20260831050044 70 0 0.0 0.0 0.00 0.00 0.00 93 1022.7
20260831044542 70 0 0.0 0.0 0.00 0.00 0.00 92 1022.8
20260831043041 70 0 0.0 0.0 0.00 0.00 0.00 92 1022.9
20260831041542 70 0 0.0 0.0 0.00 0.00 0.00 92 1022.8
20260831040041 71 0 0.0 0.0 0.00 0.00 0.00 92 1022.9
20260831034548 71 0 0.0 0.0 0.00 0.00 0.00 91 1022.9
20260831033049 71 0 0.0 0.0 0.00 0.00 0.00 91 1023.0
20260831031545 71 0 0.0 0.0 0.00 0.00 0.00 91 1023.1
20260831030047 71 0 0.0 0.0 0.00 0.00 0.00 90 1023.0
20260831024608 72 0 0.0 0.0 0.00 0.00 0.00 88 1023.1
20260831023045 72 0 0.0 0.0 0.00 0.00 0.00 88 1023.1
20260831021540 73 0 0.0 0.0 0.00 0.00 0.00 87 1023.3
20260831020050 73 0 0.0 0.0 0.00 0.00 0.00 87 1023.1